Latest Weather Observations for Delamere

IDD60801

Issued at 9:05 pm CST Tuesday 21 October 2014 (issued every 30 minutes, with the page automatically refreshed every 10 minutes)

About weather observations | Map of weather stations | Latest weather observations for NT | Other Formats
Station Details ID: 014949 Name: DELAMERE WEAPONS RANGE Lat: -15.74 Lon: 131.92 Height: 221.0 m
Data from the previous 72 hours. | See also: Recent months at Delamere
Date/Time
CST
Temp
°C
App
Temp
°C
Dew
Point
Rel
Hum
%
Delta-T
°C
Wind Press
QNH
hPa
Press
MSL
hPa
Rain
since 9 am
mm
Dir
 
Spd
km/h
Gust
km/h
Spd
kts
Gust
kts
21/09:00pm 29.3 30.7 14.3 40 9.1 CALM 0 0 0 0 1013.3 1011.8 0.0
21/08:30pm 30.3 31.6 14.0 37 9.9 CALM 0 0 0 0 1013.2 - 0.0
21/08:00pm 31.0 32.3 14.2 36 10.3 CALM 0 0 0 0 1012.9 - 0.0
21/07:30pm 32.5 32.2 12.7 30 11.9 E 6 6 3 3 1012.6 - 0.0
21/07:00pm 34.0 33.6 12.9 28 12.8 E 7 9 4 5 1012.3 - 0.0
21/06:30pm 35.0 33.5 13.2 27 13.3 E 13 20 7 11 1012.0 - 0.0
21/06:00pm 35.6 33.9 13.7 27 13.5 E 15 22 8 12 1011.7 1010.1 0.0
21/05:30pm 36.2 33.7 13.6 25 14.0 ESE 19 30 10 16 1011.4 - 0.0
21/05:00pm 36.2 33.9 13.0 24 14.2 SSE 17 24 9 13 1011.2 - 0.0
21/04:30pm 36.9 35.8 13.0 24 14.7 SSE 11 19 6 10 1011.3 - 0.0
21/04:00pm 36.6 35.2 13.4 25 14.3 SSE 13 19 7 10 1011.4 - 0.0
21/03:30pm 36.8 35.8 14.7 26 13.9 SE 13 22 7 12 1011.4 - 0.0
21/03:00pm 37.0 35.9 14.3 26 14.2 S 13 33 7 18 1011.8 1010.2 0.0
21/02:30pm 36.6 34.5 14.6 27 13.8 ENE 19 32 10 17 1012.1 - 0.0
21/02:00pm 35.8 33.2 13.3 26 13.8 ENE 19 28 10 15 1012.7 - 0.0
21/01:30pm 35.8 33.0 12.7 25 14.1 ENE 19 33 10 18 1013.3 - 0.0
21/01:00pm 35.0 34.8 14.8 29 12.6 N 9 17 5 9 1014.0 - 0.0
21/12:30pm 34.7 32.6 15.1 31 12.3 NE 20 28 11 15 1014.7 - 0.0
21/12:00pm 33.6 33.5 16.0 34 11.1 E 11 32 6 17 1015.4 1013.8 0.0
21/11:30am 33.3 32.5 16.2 36 10.9 ENE 15 32 8 17 1015.9 - 0.0
21/11:00am 32.9 31.4 16.3 37 10.5 NE 19 33 10 18 1016.3 - 0.0
21/10:30am 31.8 30.6 16.1 38 9.9 NNE 17 26 9 14 1016.7 - 0.0
21/10:00am 31.2 29.1 17.1 42 9.0 N 24 35 13 19 1017.0 - 0.0
21/09:30am 29.8 30.2 18.9 52 7.1 N 15 28 8 15 1017.1 - 0.0
21/09:00am 28.7 29.4 20.4 60 5.5 NNE 17 22 9 12 1017.2 1015.7 0.0
21/08:30am 27.7 28.3 18.7 58 5.8 NNE 13 19 7 10 1017.1 - 0.0
21/08:00am 26.5 26.0 14.9 49 7.1 NNE 11 15 6 8 1016.9 - 0.0
21/07:30am 25.1 24.3 13.9 49 6.7 NE 11 15 6 8 1016.6 - 0.0
21/07:00am 23.9 23.2 13.2 51 6.3 NE 9 15 5 8 1016.3 - 0.0
21/06:30am 23.1 22.5 12.4 51 6.2 NE 7 9 4 5 1015.9 - 0.0
21/06:00am 23.2 21.7 11.9 49 6.4 NE 11 15 6 8 1015.2 1013.6 0.0
21/05:30am 23.1 21.5 11.5 48 6.6 NNE 11 15 6 8 1014.7 - 0.0
21/05:00am 23.5 21.8 11.2 46 6.9 NE 11 15 6 8 1014.4 - 0.0
21/04:30am 23.7 21.9 10.7 44 7.3 ENE 11 13 6 7 1014.0 - 0.0
21/04:00am 24.1 22.6 10.7 43 7.5 E 9 11 5 6 1014.0 - 0.0
21/03:30am 24.7 22.8 10.6 41 7.9 NE 11 15 6 8 1013.8 - 0.0
21/03:00am 24.9 23.0 10.4 40 8.1 ENE 11 13 6 7 1013.6 1012.1 0.0
21/02:30am 25.8 23.9 10.4 38 8.7 E 11 13 6 7 1013.7 - 0.0
21/02:00am 26.5 25.0 10.6 37 9.0 E 9 11 5 6 1013.8 - 0.0
21/01:30am 27.2 25.4 10.8 36 9.4 E 11 13 6 7 1013.9 - 0.0
21/01:00am 27.3 25.8 10.5 35 9.5 E 9 15 5 8 1014.0 - 0.0
21/12:30am 28.0 26.0 10.2 33 10.1 ESE 11 13 6 7 1014.1 - 0.0
21/12:00am 27.9 25.4 9.7 32 10.2 SE 13 20 7 11 1014.2 1012.7 0.0
 
Date/Time
CST
Temp
°C
App
Temp
°C
Dew
Point
Rel
Hum
%
Delta-T
°C
Wind Press
QNH
hPa
Press
MSL
hPa
Rain
since 9 am
mm
Dir
 
Spd
km/h
Gust
km/h
Spd
kts
Gust
kts
20/11:30pm 29.5 26.6 11.1 32 10.7 NE 17 24 9 13 1013.6 - 0.0
20/11:00pm 28.9 25.9 9.1 29 11.1 ENE 15 17 8 9 1013.7 - 0.0
20/10:30pm 27.2 25.5 7.6 29 10.6 NE 6 7 3 4 1013.5 - 0.0
20/10:00pm 27.5 26.5 7.4 28 10.8 NE 2 6 1 3 1013.3 - 0.0
20/09:30pm 28.1 26.4 7.4 27 11.2 NE 6 7 3 4 1013.1 - 0.0
20/09:00pm 29.0 27.7 7.6 26 11.7 NE 4 7 2 4 1012.9 1011.4 0.0
20/08:30pm 29.7 29.1 7.6 25 12.1 CALM 0 0 0 0 1012.5 - 0.0
20/08:00pm 31.2 30.1 7.0 22 13.2 NE 2 6 1 3 1012.1 - 0.0
20/07:30pm 32.9 31.0 7.7 21 14.1 E 7 9 4 5 1011.8 - 0.0
20/07:00pm 34.1 32.3 7.2 19 15.0 E 6 7 3 4 1011.4 - 0.0
20/06:30pm 35.5 32.5 7.5 18 15.8 ESE 13 20 7 11 1011.0 - 0.0
20/06:00pm 36.2 33.3 8.1 18 16.0 ESE 13 19 7 10 1010.8 1009.2 0.0
20/05:30pm 36.6 33.6 9.2 19 15.9 ESE 15 24 8 13 1010.5 - 0.0
20/05:00pm 36.9 34.7 9.5 19 16.0 SE 11 17 6 9 1010.4 - 0.0
20/04:30pm 37.4 35.2 10.7 20 15.9 ESE 13 26 7 14 1010.3 - 0.0
20/04:00pm 36.7 33.2 10.1 20 15.7 E 19 28 10 15 1010.5 - 0.0
20/03:30pm 37.4 34.6 9.9 19 16.2 SE 15 24 8 13 1010.8 - 0.0
20/03:00pm 36.8 34.1 10.2 20 15.7 ESE 15 26 8 14 1011.0 1009.4 0.0
20/02:30pm 36.6 33.0 10.7 21 15.4 ENE 20 30 11 16 1011.5 - 0.0
20/02:00pm 35.6 32.8 9.9 21 15.0 E 15 32 8 17 1012.1 - 0.0
20/01:30pm 35.7 31.6 10.0 21 15.0 ESE 22 35 12 19 1012.7 - 0.0
20/01:00pm 35.0 31.7 10.8 23 14.3 ESE 19 33 10 18 1013.2 - 0.0
20/12:30pm 35.2 32.1 12.2 25 13.9 ESE 20 33 11 18 1013.9 - 0.0
20/12:00pm 34.1 30.7 12.4 26 13.1 ENE 22 35 12 19 1014.6 1013.0 0.0
20/11:30am 33.4 28.5 11.3 26 13.1 E 28 37 15 20 1015.2 - 0.0
20/11:00am 33.6 29.7 10.9 25 13.3 NE 22 33 12 18 1015.6 - 0.0
20/10:30am 32.7 28.0 10.7 26 12.8 NE 26 35 14 19 1016.3 - 0.0
20/10:00am 32.4 28.6 11.0 27 12.5 ENE 22 33 12 18 1016.8 - 0.0
20/09:30am 31.4 27.5 10.7 28 12.0 NE 22 32 12 17 1017.1 - 0.0
20/09:00am 30.3 27.6 11.8 32 10.9 NE 17 26 9 14 1017.1 1015.6 0.0
20/08:30am 28.9 26.9 12.8 37 9.6 NNE 15 24 8 13 1017.0 - 0.0
20/08:00am 26.8 25.7 15.2 49 7.1 NNE 15 20 8 11 1016.6 - 0.0
20/07:30am 25.5 25.4 16.1 56 5.8 NE 11 15 6 8 1016.3 - 0.0
20/07:00am 23.5 22.7 15.0 59 5.1 NE 13 17 7 9 1015.8 - 0.0
20/06:30am 22.9 22.1 13.9 57 5.3 ENE 11 17 6 9 1015.6 - 0.0
20/06:00am 23.1 21.5 12.7 52 6.0 ENE 13 19 7 10 1015.3 1013.7 0.0
20/05:30am 23.7 21.5 12.0 48 6.7 ENE 15 20 8 11 1014.8 - 0.0
20/05:00am 23.7 21.7 11.4 46 7.0 ENE 13 17 7 9 1014.6 - 0.0
20/04:30am 23.7 22.0 11.1 45 7.1 NE 11 13 6 7 1014.1 - 0.0
20/04:00am 24.5 23.2 11.1 43 7.6 NE 9 11 5 6 1013.8 - 0.0
20/03:30am 24.8 23.0 10.7 41 7.9 NE 11 13 6 7 1013.3 - 0.0
20/03:00am 25.1 23.6 10.6 40 8.2 ENE 9 13 5 7 1013.3 1011.8 0.0
20/02:30am 25.6 24.1 10.6 39 8.5 NNE 9 11 5 6 1013.1 - 0.0
20/02:00am 26.1 25.6 14.9 50 6.8 NE 11 13 6 7 1013.3 - 0.0
20/01:30am 26.5 26.7 15.8 51 6.6 NE 9 13 5 7 1013.4 - 0.0
20/01:00am 27.7 27.1 15.7 48 7.4 NNE 13 17 7 9 1013.4 - 0.0
20/12:30am 27.9 27.8 15.9 48 7.4 NE 11 15 6 8 1013.5 - 0.0
20/12:00am 28.8 27.4 14.6 42 8.7 ENE 15 19 8 10 1013.8 1012.3 0.0
 
Date/Time
CST
Temp
°C
App
Temp
°C
Dew
Point
Rel
Hum
%
Delta-T
°C
Wind Press
QNH
hPa
Press
MSL
hPa
Rain
since 9 am
mm
Dir
 
Spd
km/h
Gust
km/h
Spd
kts
Gust
kts
19/11:30pm 29.4 27.2 14.4 40 9.1 ENE 19 26 10 14 1013.9 - 0.0
19/11:00pm 28.8 27.9 12.7 37 9.5 NE 9 13 5 7 1013.9 - 0.0
19/10:30pm 29.3 28.4 12.7 36 9.9 NE 9 13 5 7 1013.6 - 0.0
19/10:00pm 29.7 28.6 13.0 35 10.0 NE 11 15 6 8 1013.3 - 0.0
19/09:30pm 31.0 29.8 12.8 32 10.9 E 11 17 6 9 1013.0 - 0.0
19/09:00pm 31.7 29.9 11.0 28 12.1 E 11 15 6 8 1012.9 1011.4 0.0
19/08:30pm 31.1 29.9 10.4 28 11.9 E 7 9 4 5 1012.4 - 0.0
19/08:00pm 30.8 31.2 11.2 30 11.4 CALM 0 0 0 0 1012.0 - 0.0
19/07:30pm 31.7 30.2 6.7 21 13.6 E 4 6 2 3 1011.7 - 0.0
19/07:00pm 33.8 31.6 5.4 17 15.3 E 6 7 3 4 1011.3 - 0.0
19/06:30pm 35.1 32.4 5.5 16 16.1 E 9 13 5 7 1011.0 - 0.0
19/06:00pm 36.2 32.5 4.5 14 17.1 E 13 20 7 11 1010.6 1009.0 0.0
19/05:30pm 36.5 32.1 4.7 14 17.2 ENE 17 24 9 13 1010.5 - 0.0
19/05:00pm 37.0 32.5 6.1 15 17.1 E 19 35 10 19 1010.2 - 0.0
19/04:30pm 37.0 33.6 6.1 15 17.1 ESE 13 30 7 16 1010.2 - 0.0
19/04:00pm 36.9 33.0 7.0 16 16.8 E 17 30 9 16 1010.2 - 0.0
19/03:30pm 37.0 33.1 8.8 18 16.3 ESE 19 28 10 15 1010.4 - 0.0
19/03:00pm 37.4 35.5 9.1 18 16.5 ENE 9 24 5 13 1010.6 1009.0 0.0
19/02:30pm 36.6 34.6 10.0 20 15.6 ENE 11 24 6 13 1011.0 - 0.0
19/02:00pm 36.5 32.5 8.4 18 16.1 E 19 26 10 14 1011.4 - 0.0
19/01:30pm 36.3 32.3 9.0 19 15.8 NE 20 33 11 18 1011.9 - 0.0
19/01:00pm 36.1 32.4 9.6 20 15.4 NE 19 26 10 14 1012.6 - 0.0
19/12:30pm 35.6 31.8 9.9 21 15.0 NE 20 30 11 16 1013.4 - 0.0
19/12:00pm 34.2 31.0 11.4 25 13.5 ENE 19 28 10 15 1014.1 1012.6 0.0
19/11:30am 34.3 31.9 13.7 29 12.7 ENE 19 30 10 16 1014.7 - 0.0
19/11:00am 33.1 31.0 14.7 33 11.4 NE 19 26 10 14 1015.2 - 0.0
19/10:30am 32.0 30.4 15.1 36 10.5 ENE 17 26 9 14 1015.3 - 0.0
19/10:00am 30.7 29.3 15.5 39 9.5 NE 17 24 9 13 1015.6 - 0.0
19/09:30am 30.4 31.4 17.8 46 8.1 NNE 9 17 5 9 1015.6 - 0.0
19/09:00am 29.5 30.6 18.0 50 7.4 N 9 13 5 7 1015.7 1014.1 0.0
19/08:30am 27.3 28.0 16.0 50 7.0 NE 7 9 4 5 1015.7 - 0.0
19/08:00am 26.4 26.4 15.1 49 6.9 ENE 9 13 5 7 1015.4 - 0.0
19/07:30am 24.9 24.6 14.4 52 6.3 ENE 9 13 5 7 1015.1 - 0.0
19/07:00am 24.2 23.9 14.3 54 5.9 E 9 13 5 7 1014.7 - 0.0
19/06:30am 23.3 21.8 13.2 53 5.9 ESE 13 19 7 10 1014.1 - 0.0
19/06:00am 23.4 22.3 13.0 52 6.1 NNW 11 15 6 8 1013.3 1011.8 0.0
19/05:30am 24.3 22.8 13.2 50 6.5 NNW 13 15 7 8 1013.1 - 0.0
19/05:00am 23.9 23.6 13.2 51 6.3 NE 7 9 4 5 1013.2 - 0.0
19/04:30am 24.6 24.0 13.5 50 6.5 NE 9 13 5 7 1013.1 - 0.0
19/04:00am 25.2 24.0 14.0 49 6.7 NNE 13 19 7 10 1012.8 - 0.0
19/03:30am 25.5 23.8 13.7 48 7.0 NE 15 19 8 10 1012.3 - 0.0
19/03:00am 25.8 23.8 12.6 44 7.7 NNE 15 20 8 11 1012.2 1010.6 0.0
19/02:30am 26.0 23.9 11.0 39 8.5 NE 13 17 7 9 1012.2 - 0.0
19/02:00am 26.6 24.0 10.7 37 9.0 NE 15 20 8 11 1012.4 - 0.0
19/01:30am 27.1 23.8 8.0 30 10.4 NE 15 20 8 11 1012.6 - 0.0
19/01:00am 27.1 23.8 6.5 27 10.9 NE 13 20 7 11 1012.9 - 0.0
19/12:30am 26.8 23.1 4.6 24 11.4 NE 13 19 7 10 1013.0 - 0.0
19/12:00am 26.1 22.2 1.4 20 11.9 ENE 11 22 6 12 1013.2 1011.7 0.0
 
Date/Time
CST
Temp
°C
App
Temp
°C
Dew
Point
Rel
Hum
%
Delta-T
°C
Wind Press
QNH
hPa
Press
MSL
hPa
Rain
since 9 am
mm
Dir
 
Spd
km/h
Gust
km/h
Spd
kts
Gust
kts
18/11:30pm 25.0 21.7 -0.2 19 11.7 ENE 7 9 4 5 1013.1 - 0.0
18/11:00pm 25.1 21.7 -0.9 18 11.9 NE 7 7 4 4 1013.2 - 0.0
18/10:30pm 26.2 23.2 2.2 21 11.7 E 7 9 4 5 1013.1 - 0.0
18/10:00pm 27.7 24.7 2.0 19 12.6 E 7 9 4 5 1013.0 - 0.0
18/09:30pm 28.7 25.6 1.3 17 13.4 E 7 7 4 4 1012.7 - 0.0

Other Formats:

Comma delimited format used in spreadsheet applications
http://www.bom.gov.au/fwo/IDD60801/IDD60801.94225.axf

JavaScript Object Notation format (JSON) in row-major order
http://www.bom.gov.au/fwo/IDD60801/IDD60801.94225.json